Simultaneous Nadir Overpasses (SNOs) Predictions

Prediction of SNOs over PacNW region [( 10.00, 139.50) to ( 22.70, 165.60)] between AQUA and NPP Satellites:

Table of predicted SNOs over PacNW region for the next 30.0 days since TLE Epoch: 5/7/2022
Index Date (AQUA) Time (AQUA) AQUA Lat,Lon Date (NPP) Time (NPP) NPP Lat,Lon Distance(km) Time Diff (sec)
1 05/09/2022 03:24:32 18.31, 150.61 05/09/2022 03:25:44 17.55, 147.11 380.34 72
2 05/11/2022 15:25:33 10.02, 154.56 05/11/2022 15:22:03 6.18, 151.74 527.67 210
3 05/17/2022 02:34:13 19.32, 163.06 05/17/2022 02:35:09 18.58, 159.58 375.59 56
4 05/19/2022 16:12:42 14.07, 143.42 05/19/2022 16:10:19 14.54, 141.00 265.70 143
5 05/25/2022 03:20:04 10.88, 152.94 05/25/2022 03:23:19 9.98, 148.94 449.08 195
6 05/27/2022 15:22:10 13.40, 155.98 05/27/2022 15:19:36 13.91, 153.58 266.14 154
7 06/02/2022 02:29:24 11.33, 165.57 06/02/2022 02:32:32 10.43, 161.56 449.38 188
